カタログに戻る

THORAD AGENA D DEB

運用中SSO
NORAD 4986·DEBRIS·🇺🇸 United States

打ち上げ Apr 8, 1970 から Vandenberg Space Force Base

Loading…

次のパス (今後24時間)

TLE

最新Source: Space-Track

元期: Sep 13, 2026, 22:05 UTC

1  4986U 70025HG  26256.92073618  .00000027  00000-0  12140-3 0  9998
2  4986  99.7353 140.5564 0053189 211.7783 161.8969 13.42951806762537

AllMySatでTHORAD AGENA D DEBをリアルタイム追跡

Download on the App Store